This demonstration page uses our WeatherBlox Daily Observations layout. Learn more.

39.92423, -83.80882

Hourly Observations for September 17, 2016

Temp ( °F °C ) Dew Point ( °F °C ) Humidity (%) Winds ( mph kmh ) Pressure ( in mb ) Visibility ( mi km ) Precip ( " mm )
12:56 am 00:56 Mostly Cloudy 71 21.7 67 19.4 87 87 S 7 11 30.01 1016 10 16.0934 0 0
1:56 am 01:56 Mostly Cloudy 70 21.1 67 19.4 90 90 Calm 30 1016 10 16.0934 0 0
2:56 am 02:56 Partly Cloudy 70 21.1 67 19.4 90 90 SW 3 6 30 1016 10 16.0934 0 0
3:56 am 03:56 Cloudy 70 21.1 68 20 93 93 S 3 6 29.98 1015 10 16.0934 0 0
4:45 am 04:45 Cloudy with Nearby Thunderstorms 70 21 68 20 94 94 W 8 13 30 1016 7 11.26538 0.01 0.254
4:56 am 04:56 Cloudy with Heavy Thunderstorms 70 21.1 68 20 93 93 W 9 15 30.01 1016 5 8.0467 0.09 2.286
5:16 am 05:16 Cloudy with Heavy Rain 70 21 68 20 94 94 WSW 7 11 30.03 1017 4 6.43736 0.08 2.032
5:38 am 05:38 Cloudy with Nearby Thunderstorms 70 21 68 20 94 94 SSE 6 9 30 1016 4 6.43736 0.19 4.826
5:53 am 05:53 Cloudy with Mist and Fog 70 21 68 20 94 94 SE 6 9 30 1016 4 6.43736 0.19 4.826
5:56 am 05:56 Cloudy with Mist and Fog 69 20.6 68 20 96 96 SE 6 9 30 1016 3 4.82802 0.19 4.826
6:44 am 06:44 Mostly Clear with Mist and Fog 66 19 66 19 100 100 SE 3 6 30 1016 2.5 4.02335 0 0
6:56 am 06:56 Clear with Mist and Fog 67 19.4 67 19.4 100 100 ESE 5 7 30 1016 1.75 2.816345 0 0
7:08 am 07:08 Clear with Mist and Fog 66 19 66 19 100 100 ESE 3 6 30 1016 0.75 1.207005 0 0
7:16 am 07:16 Mostly Clear with Fog 66 19 66 19 100 100 ESE 5 7 30 1016 0.25 0.402335 0 0
7:39 am 07:39 Partly Cloudy with Mist and Fog 66 19 66 19 100 100 SE 5 7 30 1016 0.75 1.207005 0.01 0.254
7:52 am 07:52 Partly Cloudy with Mist and Fog 66 19 66 19 100 100 SE 5 7 30 1016 1 1.60934 0.01 0.254
7:56 am 07:56 Partly Cloudy with Mist and Fog 67 19.4 67 19.4 100 100 SE 3 6 30.01 1016 1.5 2.41401 0.01 0.254
8:04 am 08:04 Partly Cloudy with Mist and Fog 68 20 66 19 94 94 SE 5 7 30 1016 3 4.82802 0 0
8:56 am 08:56 Mostly Sunny 72 22.2 69 20.6 91 91 S 5 7 30 1016 10 16.0934 0 0
9:56 am 09:56 Mostly Cloudy 73 22.8 68 20 84 84 SW 12 19 30.01 1016 10 16.0934 0 0
10:56 am 10:56 Sunny 75 23.9 68 20 79 79 SSW 8 13 30 1016 10 16.0934 0 0
11:56 am 11:56 Mostly Cloudy 78 25.6 68 20 71 71 SW 16 26 30 1016 10 16.0934 0 0
12:56 pm 12:56 Mostly Cloudy 76 24.4 67 19.4 74 74 SW 17 28 29.99 1016 10 16.0934 0 0
1:56 pm 13:56 Cloudy with Light Rain 72 22.2 67 19.4 84 84 SW 10 17 30.01 1016 10 16.0934 0 0.0254
2:56 pm 14:56 Mostly Cloudy 75 23.9 69 20.6 82 82 SSW 9 15 29.98 1015 10 16.0934 0 0.0254
3:56 pm 15:56 Cloudy 77 25 68 20 74 74 SW 10 17 29.96 1015 10 16.0934 0 0
4:56 pm 16:56 Cloudy 74 23.3 67 19.4 79 79 SW 10 17 29.97 1015 10 16.0934 0 0
5:56 pm 17:56 Cloudy with Light Rain 71 21.7 68 20 90 90 W 7 11 29.98 1015 10 16.0934 0.01 0.254
6:07 pm 18:07 Cloudy with Light Rain 70 21 70 21 100 100 SW 6 9 29.97 1015 10 16.0934 0.01 0.254
6:56 pm 18:56 Cloudy 71 21.7 68 20 90 90 SW 8 13 29.99 1016 10 16.0934 0.01 0.254
7:47 pm 19:47 Cloudy 70 21 68 20 94 94 SSW 8 13 29.97 1015 10 16.0934 0 0
7:56 pm 19:56 Cloudy 70 21.1 68 20 93 93 SSW 8 13 29.99 1016 10 16.0934 0 0
8:56 pm 20:56 Cloudy 69 20.6 67 19.4 93 93 SSW 5 7 29.99 1016 10 16.0934 0 0
9:13 pm 21:13 Cloudy 68 20 66 19 94 94 SSW 5 7 30 1016 10 16.0934 0 0
9:41 pm 21:41 Cloudy 68 20 66 19 94 94 Calm 30 1016 10 16.0934 0 0
9:56 pm 21:56 Mostly Cloudy 68 20 67 19.4 96 96 SSW 5 7 30.01 1016 10 16.0934 0 0
10:26 pm 22:26 Partly Cloudy 66 19 66 19 100 100 S 3 6 30 1016 10 16.0934 0 0
10:56 pm 22:56 Mostly Cloudy 67 19.4 67 19.4 100 100 SW 5 7 30.01 1016 8 12.87472 0 0
11:49 pm 23:49 Cloudy 68 20 68 20 100 100 SSW 6 9 30 1016 9 14.48406 0 0
11:56 pm 23:56 Cloudy 69 20.6 68 20 96 96 SW 7 11 30.01 1016 9 14.48406 0 0

Powered by AerisWeather